sat.trackr.live / text

‹ back to catalog

T.MICROSAT-2

NORAD 68433 · 2026-067T

PAYLOAD ACTIVE UNKNOWN

§ Identity

Operator
Country
ROC
Launch date
2026-03-30
Launch site
AFWTR
Launch vehicle
Mass (kg)
RCS (m²)

External: N2YO · Heavens-Above · Gunter

§ Orbital elements

Epoch: 2026-05-25T02:38:38.085792Z

Period
94.92 min
Inclination
97.4554°
Eccentricity
0.0007104
Mean motion
15.17135921 rev/d
Perigee alt
509.6 km
Apogee alt
519.4 km
Semi-major
6,892.6 km
B*
2.3767e-4
RAAN
103.8445°
Arg perigee
128.7051°
Mean anomaly
231.4818°
Rev number
843

§ Raw data

T.MICROSAT-21 68433U 26067T   26145.11016303  .00004650  00000+0  23767-3 0  99902 68433  97.4554 103.8445 0007104 128.7051 231.4818 15.17135921  8438

JSON: /api/v1/satellites/68433 · /tle

For live sub-satellite position, see the globe view (requires WebGL).

§ Visibility from observer

Set your observer location to see the next 7 days of passes ≥ 10°. The values pass through the URL so the page stays shareable.

No JS? Fill the form by hand. The geolocation button needs JavaScript.

§ Radio — SatNOGS DB

ModeDescriptionDownlinkUplink
FSK Mode S - FSK50k - Telemetry AX.25 G3RUH 2.220 GHz
GFSK Mode U - GFSK9k6 - G3RUH AX.25 401.025 MHz

2 transmitters · refreshed weekly from db.satnogs.org